User: anonymous   Login
Location: Niverville
(49.6028°N, 97.0419°W)
Time: 06:59:39
(UTC-06:00)
Language:

BREEZE-M DEB (TANK) - Orbit

View from above orbital plane
View from above orbital plane
View from above satellite
View from above satellite

Ground track
Ground track

The orbit data is extracted from the following two-line orbital elements,

1 33374U 08044B   17016.57631811  .00000867  00000-0  29525-3 0  9990
2 33374  49.5125  30.3374 5444804 353.4492   1.6199  4.86648038146618
Epoch (UTC): 16 January 2017 13:49:53
Eccentricity: 0.5444804
inclination: 49.5125°
perigee height: 322 km
apogee height: 16340 km
right ascension of ascending node: 30.3374°
argument of perigee: 353.4492°
revolutions per day: 4.86648038
mean anomaly at epoch: 1.6199°
orbit number at epoch: 14661

The dashed part of the orbit path shows where the satellite is in the earth's shadow,  

DLR